Location: Czekanka
(50.4925°N, 19.2643°E)
Time: 12:45:43
(UTC+00:00)

Cosmos 2219 - Pass Details

Date: 15 June 2024
Orbit: 834 x 858 km, 71.1° (Epoch: 15 July)

Event Time Altitude Azimuth Distance (km) Brightness Sun altitude
Exits shadow 00:27:43 16° 224° (SW) 2,067 4.6 -12.7°
Maximum altitude 00:32:15 63° 303° (WNW) 931 3.5 -12.4°
Drops below altitude 10° 00:37:50 10° 25° (NNE) 2,456 7.2 -12.0°
Sets 00:40:19 0° 29° (NNE) 3,394 8.6 -11.8°
